Flag Weather past 2 weeks in Hilden, North Rhine-Westphalia, Germany

Now
45 °F

Passing clouds.


Feels Like: 38 °F
Forecast: 38 / 46 °F
Wind: 14 mph from Southeast

Location: Duesseldorf

Current Time: Nov 28, 2014 at 2:32:04 AM

Latest Report: Nov 28, 2014 at 1:50 AM


Visibility: N/A

Pressure: 29.77 "Hg

Humidity: 81%

Dew point: 39 °F

Location of HildenLocation

Historic Weather in Hilden — Graph

°F

Hilden temperature yesterday

Maximum temperature yesterday: 48 °F (at 1:50 PM)
Minimum temperature yesterday: 43 °F (at 12:20 AM)
Average temperature yesterday: 45 °F

Past Weeks' High & Low Weather Summary

 TemperatureHumidityPressure
High59 °F (Nov 23, 1:50 PM)100% (Nov 13, 2:50 AM)30.33 "Hg (Nov 13, 2:50 AM)
Low30 °F (Nov 25, 3:50 AM)58% (Nov 21, 1:50 PM)29.50 "Hg (Nov 16, 4:20 PM)
Average47 °F83%29.94 "Hg
* Reported Nov 13 1:20 AM — Nov 28 1:20 AM, Hilden, Weather by CustomWeather, © 2014

Note: Actual official high and low records may vary slightly from our data, if they occured in-between our weather recording intervals... More about our weather records

Advertising

Hilden weather history for previous 24 hours

 ConditionsComfort  
Time TempWeatherWind HumidityBarometerVisibility
1:20 AM
Nov 28
45 °FPassing clouds.16 mph81%29.77 "HgN/A
12:50 AM43 °FPassing clouds.16 mph87%29.77 "HgN/A
12:20 AM43 °FPassing clouds.17 mph87%29.77 "HgN/A
11:50 PM
Nov 27
43 °FPassing clouds.18 mph81%29.74 "HgN/A
11:20 PM45 °FPassing clouds.14 mph81%29.74 "HgN/A
10:50 PM45 °FClear.16 mph81%29.74 "Hg10 mi
10:20 PM45 °FPassing clouds.15 mph81%29.74 "HgN/A
9:50 PM45 °FPassing clouds.12 mph81%29.74 "HgN/A
9:20 PM45 °FLight rain. Passing clouds.15 mph81%29.74 "HgN/A
8:50 PM45 °FLight rain. Passing clouds.13 mph87%29.74 "HgN/A
8:20 PM45 °FLight rain. Mostly cloudy.12 mph87%29.74 "HgN/A
7:50 PM45 °FLight rain. Mostly cloudy.12 mph81%29.74 "HgN/A
7:20 PM45 °FLight rain. Mostly cloudy.8 mph81%29.74 "HgN/A
6:50 PM45 °FLight rain. Mostly cloudy.10 mph81%29.74 "HgN/A
6:20 PM45 °FLight rain. Mostly cloudy.12 mph87%29.74 "HgN/A
5:50 PM45 °FLight rain. Overcast.10 mph81%29.74 "HgN/A
5:20 PM45 °FLight rain. Passing clouds.10 mph87%29.74 "HgN/A
4:50 PM45 °FLight rain. Mostly cloudy.8 mph81%29.74 "HgN/A
4:20 PM45 °FLight rain. Partly sunny.9 mph87%29.74 "HgN/A
3:50 PM46 °FLight rain. Partly sunny.10 mph82%29.74 "HgN/A
3:20 PM46 °FLight rain. Partly sunny.10 mph76%29.74 "HgN/A
2:50 PM46 °FLight rain. Mostly cloudy.10 mph76%29.74 "HgN/A
2:20 PM46 °FLight rain. Clear.10 mph76%29.74 "HgN/A
1:50 PM48 °FLight rain. Clear.9 mph71%29.74 "HgN/A
1:20 PM46 °FSunny.13 mph76%29.77 "Hg10 mi
12:50 PM46 °FSunny.13 mph76%29.77 "Hg10 mi
12:20 PM46 °FSunny.10 mph76%29.77 "Hg10 mi
11:50 AM46 °FPartly sunny.13 mph71%29.77 "HgN/A
11:20 AM46 °FBroken clouds.14 mph71%29.80 "HgN/A
10:50 AM46 °FPartly sunny.15 mph71%29.80 "HgN/A
10:20 AM46 °FPartly sunny.13 mph71%29.80 "HgN/A
9:50 AM45 °FBroken clouds.14 mph76%29.80 "HgN/A
9:20 AM45 °FBroken clouds.14 mph76%29.80 "HgN/A
8:50 AM45 °FPartly sunny.15 mph76%29.80 "HgN/A
8:20 AM45 °FBroken clouds.13 mph76%29.80 "HgN/A
7:50 AM45 °FPartly cloudy.12 mph76%29.80 "HgN/A
7:20 AM45 °FPartly cloudy.10 mph76%29.80 "HgN/A
6:50 AM43 °FPassing clouds.12 mph76%29.80 "HgN/A
6:20 AM43 °FPassing clouds.12 mph76%29.80 "HgN/A
5:50 AM45 °FPartly cloudy.12 mph76%29.80 "HgN/A
5:20 AM43 °FPartly cloudy.13 mph76%29.80 "HgN/A
4:50 AM45 °FPartly cloudy.10 mph76%29.83 "HgN/A
4:20 AM43 °FPartly cloudy.9 mph81%29.83 "HgN/A
3:50 AM43 °FPartly cloudy.12 mph81%29.83 "HgN/A
3:20 AM43 °FPartly cloudy.12 mph81%29.83 "HgN/A
2:50 AM43 °FPassing clouds.14 mph81%29.83 "HgN/A
2:20 AM43 °FPassing clouds.14 mph81%29.86 "HgN/A
Weather by CustomWeather, © 2014

See weather overviewHow to use our weather pages